[[{"header":{"parameterUnit":"m.s-1","parameterCategory":1,"la1":30.2991,"la2":30.254,"lo1":-89.0895,"lo2":-89.0444,"dy":0.0017,"dx":0.0017,"nx":28,"ny":28,"refTime":"2025-12-23T09:00:00:Z","depth":0,"parameterNumber":2,"parameterNumberName":"U-component_of_WINDS"},"data":[0,0,0,0,0,0,0,0,0,0,0,0,0,0,0,0,0,0,0,0,0,0,0,0,0,0,0,0,0,0,0,0,0,0,0,0,0,0,0,0,0,0,0,0,0,0,0,0,0,0,0,0,0,0,0,0,0,0,-1.6331,-1.6331,0,-1.6341,-1.6341,-1.6341,-1.6322,-1.6321,-1.6321,-1.632,-1.6332,-1.6333,-1.6333,0,0,0,0,0,0,0,0,0,0,0,0,0,-1.6296,-1.6296,-1.6331,-1.6331,-1.6331,-1.6341,-1.6341,-1.6341,-1.6322,-1.6321,-1.632,-1.632,-1.6331,-1.6332,-1.6334,0,0,0,0,0,0,0,0,0,0,0,0,0,-1.6309,-1.6297,-1.6331,-1.6322,-1.6322,-1.6341,-1.6341,-1.6342,-1.6322,-1.6321,-1.632,-1.6319,-1.6331,-1.6332,-1.6334,-1.6362,0,0,-1.6338,-1.6339,0,0,0,0,0,0,0,0,-1.6308,-1.631,-1.6323,-1.6323,-1.6322,-1.6329,-1.6333,-1.6348,-1.6322,-1.6322,-1.632,-1.6319,-1.6332,-1.6333,-1.6337,-1.6362,-1.6363,-1.6338,-1.6339,-1.6339,-1.634,0,0,0,0,0,0,0,-1.6307,-1.631,-1.6335,-1.6324,-1.6323,-1.6319,-1.632,-1.6336,-1.6332,-1.6322,-1.6321,-1.6322,-1.6331,-1.6336,-1.6337,-1.6363,-1.6338,-1.6339,-1.634,-1.6341,-1.6414,-1.6415,0,0,0,0,0,0,-1.6307,-1.6309,-1.6334,-1.6335,-1.6313,-1.632,-1.6321,-1.6328,-1.6332,-1.6332,-1.6323,-1.6321,-1.6334,-1.6336,-1.6338,-1.6372,-1.6339,-1.6341,-1.6342,-1.6413,-1.6414,-1.6416,0,0,0,0,0,0,-1.6307,-1.631,-1.6334,-1.6322,-1.6325,-1.6322,-1.633,-1.6329,-1.6333,-1.6333,-1.6332,-1.6328,-1.6333,-1.6336,-1.6356,-1.6372,-1.6341,-1.6343,-1.6412,-1.6413,-1.6415,-1.644,0,0,0,0,0,0,-1.6306,-1.631,-1.6319,-1.6322,-1.6325,-1.6352,-1.6331,-1.633,-1.6336,-1.6333,-1.6337,-1.6337,-1.6333,-1.6354,-1.6358,-1.6373,-1.6344,-1.641,-1.6412,-1.6414,-1.6437,-1.6442,-1.6446,0,0,0,0,0,-1.6305,-1.6326,-1.632,-1.6323,-1.6338,-1.6353,-1.6355,-1.6349,-1.6337,-1.6347,-1.6347,-1.6337,-1.637,-1.6357,-1.636,-1.6376,-1.6409,-1.6412,-1.6414,-1.6435,-1.6441,-1.6446,0,0,0,0,0,0,-1.6325,-1.6326,-1.632,-1.6342,-1.6348,-1.6349,-1.6362,-1.6354,-1.6363,-1.6361,-1.6354,-1.6355,-1.6377,-1.6379,-1.6364,-1.6405,-1.6388,-1.6391,-1.6403,-1.6408,-1.6412,-1.6411,-1.6345,0,0,0,0,0,-1.6332,-1.6344,-1.6344,-1.6364,-1.6367,-1.6365,-1.6371,-1.6366,-1.6371,-1.6374,-1.6375,-1.6381,-1.6393,-1.64,-1.6411,-1.6438,-1.6439,-1.6451,-1.6455,-1.6459,-1.6462,-1.6477,-1.6483,-1.6424,-1.6424,-1.6424,0,0,-1.6346,-1.6349,-1.6356,-1.6368,-1.6372,-1.6385,-1.6366,-1.6381,-1.639,-1.6376,-1.6395,-1.6397,-1.6403,-1.6428,-1.6438,-1.643,-1.6478,-1.6462,-1.6465,-1.6466,-1.648,-1.6486,-1.6491,-1.6426,-1.6425,-1.6425,0,0,-1.638,-1.6382,-1.64,-1.6404,-1.641,-1.6409,-1.6413,-1.6417,-1.6417,-1.6437,-1.6427,-1.6439,-1.6459,-1.6464,-1.647,-1.6508,-1.6499,-1.6512,-1.6533,-1.6549,-1.6554,-1.6558,-1.6572,-1.6577,-1.6515,-1.6515,-1.6515,0,-1.6397,-1.6416,-1.641,-1.6425,-1.6431,-1.6419,-1.6438,-1.6443,-1.6452,-1.6457,-1.6447,-1.6473,-1.6477,-1.6503,-1.6512,-1.6517,-1.6522,-1.6511,-1.6553,-1.6557,-1.6561,-1.6575,-1.658,-1.6516,-1.6516,-1.6516,-1.6516,0,-1.6438,-1.6451,-1.6465,-1.6474,-1.6482,-1.6499,-1.6496,-1.6505,-1.6501,-1.65,-1.6522,-1.6526,-1.6538,-1.6544,-1.6539,-1.657,-1.6564,-1.6554,-1.6537,-1.6568,-1.6581,-1.6586,-1.6518,-1.6518,-1.6517,-1.6517,0,0,-1.6482,-1.649,-1.6495,-1.6499,-1.6506,-1.6517,-1.6534,-1.6546,-1.6554,-1.6562,-1.6577,-1.6595,-1.6586,-1.6593,-1.6589,-1.6602,-1.6634,-1.6591,-1.6591,-1.6599,-1.6669,-1.6676,-1.6682,-1.6629,-1.6629,-1.663,-1.6669,0,-1.6515,-1.6544,-1.654,-1.6569,-1.6582,-1.6572,-1.6587,-1.6594,-1.6595,-1.6607,-1.6608,-1.6621,-1.6608,-1.6612,-1.6625,-1.6627,-1.6648,-1.6624,-1.6643,-1.6643,-1.6641,-1.6689,-1.6696,-1.6732,-1.6673,-1.6674,-1.6675,0,-1.6557,-1.6567,-1.6597,-1.6603,-1.6608,-1.6622,-1.6634,-1.6645,-1.6653,-1.6653,-1.6661,-1.6655,-1.6674,-1.6657,-1.6683,-1.6667,-1.6675,-1.6678,-1.6679,-1.668,-1.6661,-1.6691,-1.6743,-1.6749,-1.6682,-1.6682,-1.6681,0,-1.6587,-1.6608,-1.6628,-1.6633,-1.6641,-1.6651,-1.6655,-1.6662,-1.667,-1.668,-1.6686,-1.6699,-1.6705,-1.6716,-1.6715,-1.6702,-1.6742,-1.6724,-1.6743,-1.6743,-1.675,-1.675,-1.6804,-1.6756,-1.6756,-1.6756,-1.6756,0,-1.6625,-1.6643,-1.6642,-1.6655,-1.6676,-1.6672,-1.6694,-1.6696,-1.6703,-1.6717,-1.671,-1.6723,-1.672,-1.6734,-1.6733,-1.6756,-1.6759,-1.676,-1.676,-1.676,-1.676,-1.6765,-1.6762,-1.6757,-1.6757,-1.6757,-1.6756,0,-1.6661,-1.6661,-1.6683,-1.6689,-1.6692,-1.6707,-1.6713,-1.6725,-1.6727,-1.6744,-1.6748,-1.6751,-1.6766,-1.6766,-1.6785,-1.6784,-1.6812,-1.6808,-1.6809,-1.6808,-1.6827,-1.6825,-1.6886,-1.6894,-1.684,-1.6841,-1.6841,0,-1.6685,-1.6699,-1.6707,-1.6716,-1.6721,-1.6735,-1.6743,-1.6741,-1.675,-1.6762,-1.6773,-1.6789,-1.6801,-1.6827,-1.6831,-1.6845,-1.6842,-1.6863,-1.6844,-1.6845,-1.6843,-1.6842,-1.6844,-1.6866,-1.6867,-1.6867,-1.6867,0,-1.6727,-1.6727,-1.6739,-1.6752,-1.6762,-1.6772,-1.6782,-1.679,-1.6789,-1.68,-1.6816,-1.6826,-1.6845,-1.6861,-1.6875,-1.688,-1.6874,-1.6874,-1.6879,-1.6879,-1.6879,-1.688,-1.6819,-1.6872,-1.6871,-1.6871,-1.6871,-1.6871,-1.6758,-1.6771,-1.6779,-1.6793,-1.68,-1.681,-1.6822,-1.6826,-1.6839,-1.6854,-1.6853,-1.6871,-1.6881,-1.69,-1.6906,-1.6921,-1.6914,-1.6921,-1.6923,-1.6925,-1.6927,-1.6877,-1.6924,-1.6924,-1.6924,-1.6924,-1.6924,0,-1.68,-1.6805,-1.6819,-1.6832,-1.6844,-1.6838,-1.6849,-1.6859,-1.6875,-1.6885,-1.6897,-1.6917,-1.6933,-1.6939,-1.6954,-1.6966,-1.6963,-1.697,-1.6969,-1.697,-1.6932,-1.6927,-1.6971,-1.6971,-1.6971,-1.6971,-1.6971,-1.6971,-1.6823,-1.6845,-1.6846,-1.6871,-1.6877,-1.6895,-1.6902,-1.6911,-1.6918,-1.6941,-1.6954,-1.6958,-1.6966,-1.6983,-1.6998,-1.6999,-1.7005,-1.7013,-1.7013,-1.6978,-1.6973,-1.6968,-1.6963,-1.7014,-1.7014,-1.705,-1.705,-1.705]},{"header":{"parameterUnit":"m.s-1","parameterCategory":1,"la1":30.2991,"la2":30.254,"lo1":-89.0895,"lo2":-89.0444,"dy":0.0017,"dx":0.0017,"nx":28,"ny":28,"refTime":"2025-12-23T09:00:00:Z","depth":0,"parameterNumber":3,"parameterNumberName":"V-component_of_WINDS"},"data":[0,0,0,0,0,0,0,0,0,0,0,0,0,0,0,0,0,0,0,0,0,0,0,0,0,0,0,0,0,0,0,0,0,0,0,0,0,0,0,0,0,0,0,0,0,0,0,0,0,0,0,0,0,0,0,0,0,0,0.1456,0.1457,0,0.1556,0.1557,0.1558,0.1682,0.1684,0.1686,0.1688,0.1789,0.179,0.1791,0,0,0,0,0,0,0,0,0,0,0,0,0,0.1371,0.1372,0.1456,0.1457,0.1458,0.1556,0.1557,0.1559,0.1682,0.1685,0.1687,0.1689,0.1789,0.179,0.1791,0,0,0,0,0,0,0,0,0,0,0,0,0,0.1433,0.1372,0.1456,0.1532,0.154,0.1556,0.1557,0.1559,0.1682,0.1685,0.1688,0.169,0.1789,0.179,0.1791,0.174,0,0,0.1795,0.1796,0,0,0,0,0,0,0,0,0.1429,0.1436,0.1519,0.1526,0.1535,0.161,0.1565,0.162,0.1681,0.1628,0.1688,0.1692,0.1727,0.1734,0.1746,0.1745,0.1749,0.1795,0.1796,0.1797,0.1797,0,0,0,0,0,0,0,0.1425,0.1432,0.1496,0.152,0.153,0.1561,0.1573,0.1576,0.166,0.1632,0.1642,0.1652,0.1732,0.1744,0.1749,0.1751,0.1795,0.1796,0.1797,0.1798,0.1715,0.1712,0,0,0,0,0,0,0.1409,0.1428,0.1492,0.1499,0.1488,0.156,0.1573,0.1583,0.166,0.1674,0.1649,0.1657,0.1741,0.1748,0.1753,0.17,0.1797,0.1798,0.1799,0.1718,0.1714,0.1711,0,0,0,0,0,0,0.1407,0.1414,0.1488,0.1466,0.1478,0.1558,0.1568,0.1583,0.1596,0.1673,0.1688,0.1647,0.1743,0.1751,0.1743,0.1705,0.1798,0.18,0.1721,0.1716,0.1712,0.1592,0,0,0,0,0,0,0.1404,0.1412,0.1394,0.1464,0.1478,0.1476,0.1566,0.1583,0.1598,0.1609,0.1674,0.1688,0.1746,0.174,0.1744,0.1709,0.1801,0.1725,0.1719,0.1714,0.16,0.1584,0.1571,0,0,0,0,0,0.14,0.1355,0.1392,0.1399,0.1457,0.1474,0.1482,0.1551,0.1594,0.1577,0.1626,0.1686,0.1708,0.1738,0.1744,0.1708,0.1728,0.1721,0.1714,0.1606,0.1587,0.1571,0,0,0,0,0,0,0.1277,0.1366,0.1408,0.1384,0.142,0.1495,0.1474,0.1528,0.1552,0.1562,0.1645,0.1659,0.1641,0.1674,0.1705,0.1664,0.1727,0.1721,0.1643,0.1625,0.1611,0.1604,0.1802,0,0,0,0,0,0.1247,0.1254,0.1331,0.1302,0.1319,0.1393,0.1403,0.1453,0.1494,0.151,0.1559,0.1595,0.1612,0.162,0.1639,0.1605,0.1621,0.1583,0.1568,0.1556,0.155,0.1536,0.152,0.1689,0.1689,0.1689,0,0,0.1185,0.1235,0.1234,0.1279,0.1313,0.1318,0.1405,0.1406,0.1411,0.151,0.1506,0.1542,0.1589,0.1568,0.1561,0.1595,0.1507,0.1547,0.1537,0.1538,0.1528,0.1512,0.1497,0.1684,0.1685,0.1686,0,0,0.1076,0.1113,0.1095,0.1127,0.1178,0.1228,0.1223,0.129,0.1318,0.1315,0.139,0.1396,0.1421,0.1452,0.1471,0.1374,0.143,0.1377,0.1302,0.1287,0.1274,0.1262,0.1229,0.1216,0.1371,0.1371,0.1371,0,0.0993,0.1004,0.1078,0.1076,0.1094,0.1184,0.1166,0.1194,0.1247,0.1258,0.1295,0.1329,0.1367,0.1355,0.1331,0.1343,0.1341,0.1371,0.127,0.1259,0.125,0.1219,0.1206,0.1364,0.1365,0.1366,0.1366,0,0.09,0.0907,0.0885,0.0936,0.0952,0.0941,0.1014,0.102,0.1069,0.1114,0.1111,0.1159,0.119,0.1191,0.1237,0.1186,0.1205,0.1254,0.132,0.1226,0.1198,0.1187,0.1355,0.1357,0.1359,0.1361,0,0,0.0717,0.0809,0.08,0.0825,0.0888,0.0894,0.0888,0.0919,0.0923,0.0957,0.0954,0.0974,0.102,0.1042,0.1092,0.1079,0.1001,0.1131,0.1133,0.1106,0.0949,0.0912,0.0897,0.1038,0.1036,0.1034,0.0945,0,0.062,0.0615,0.0682,0.0659,0.0666,0.0752,0.0747,0.0784,0.0827,0.0839,0.0886,0.0899,0.0959,0.0972,0.0963,0.1012,0.0971,0.1019,0.1037,0.1037,0.1024,0.0883,0.0844,0.0757,0.0935,0.0933,0.0932,0,0.0507,0.0536,0.0514,0.0579,0.0584,0.0578,0.0612,0.0623,0.0667,0.07,0.0723,0.0782,0.078,0.0841,0.0841,0.0873,0.0884,0.0909,0.0907,0.0913,0.0979,0.0885,0.0731,0.0718,0.0915,0.0916,0.0918,0,0.0378,0.041,0.0402,0.042,0.0495,0.0489,0.052,0.0568,0.0582,0.0612,0.0622,0.065,0.0666,0.0687,0.0751,0.079,0.0744,0.081,0.0771,0.0769,0.0759,0.0759,0.0605,0.0762,0.0763,0.0763,0.0763,0,0.0264,0.0247,0.0345,0.034,0.0324,0.04,0.0382,0.0421,0.0463,0.0467,0.0542,0.0544,0.0629,0.064,0.0691,0.0683,0.0689,0.0716,0.073,0.071,0.0707,0.0719,0.0727,0.076,0.076,0.0761,0.0762,0,0.0117,0.0182,0.0178,0.025,0.0267,0.0252,0.0314,0.0312,0.0359,0.0363,0.0368,0.0442,0.046,0.0526,0.0559,0.0594,0.057,0.0596,0.0555,0.0565,0.0523,0.0526,0.0373,0.0357,0.0523,0.0521,0.052,0,0.0041,0.0031,0.0101,0.0109,0.0137,0.0149,0.0165,0.024,0.0253,0.0303,0.0295,0.0319,0.0342,0.0366,0.0423,0.0449,0.0477,0.0421,0.0481,0.0462,0.0478,0.0478,0.0478,0.0409,0.0407,0.0405,0.0403,0,-0.01,-0.0068,-0.0048,-0.0017,-0.0001,0.0027,0.0059,0.0061,0.0145,0.0156,0.0175,0.0193,0.0228,0.025,0.0286,0.0318,0.0374,0.0384,0.0377,0.0357,0.0334,0.0348,0.0522,0.0387,0.0389,0.039,0.0391,0.0392,-0.0213,-0.0218,-0.0169,-0.0149,-0.0117,-0.0089,-0.0086,-0.0039,-0.0021,0.0013,0.0056,0.007,0.0116,0.017,0.0198,0.021,0.0241,0.023,0.0227,0.0224,0.0215,0.0331,0.0216,0.0217,0.0217,0.0218,0.0218,0,-0.0349,-0.0313,-0.0296,-0.0253,-0.0238,-0.0186,-0.0147,-0.0138,-0.0126,-0.0088,-0.0066,-0.0044,-0.0021,0.0037,0.0065,0.0064,0.0091,0.0069,0.0071,0.0077,0.0185,0.0189,0.0047,0.0047,0.0047,0.0047,0.0047,0.0047,-0.0418,-0.0423,-0.0385,-0.0373,-0.0337,-0.0322,-0.0304,-0.0278,-0.0247,-0.0225,-0.0205,-0.0167,-0.0121,-0.0088,-0.0065,-0.0048,-0.0041,-0.0071,-0.0046,0.0053,0.007,0.0085,0.009,-0.007,-0.0071,-0.0154,-0.0155,-0.0155]}]]